Theta_e
290 289 288 286 287 286 285 285 284 283 282 280 280 280 280 280 279 279 279 278 278 279
289 289 287 286 286 286 285 285 283 283 282 281 280 280 279 279 278 278 279 278 278 278
288 288 287 285 285 285 285 284 282 283 282 281 280 280 279 278 278 278 277 278 277 277
288 288 287 285 285 285 284 283 283 282 281 281 280 279 278 278 277 277 276 276 277 276
288 287 286 286 284 285 283 283 283 282 281 280 280 279 278 277 277 276 276 276 276 275
286 285 286 286 284 283 283 282 281 281 280 280 279 278 278 277 276 276 275 275 275 274
286 285 286 286 284 282 282 281 280 280 280 279 278 278 277 276 275 274 274 275 275 274
286 286 286 284 283 282 282 281 280 279 278 278 277 277 276 275 275 274 273 274 274 274
284 284 284 283 282 281 280 279 279 278 277 276 276 281 281 277 274 274 273 272 273 274
284 283 283 282 280 280 279 278 278 277 276 276 276 282 282 280 275 274 273 273 274 275
283 282 281 280 279 278 278 277 276 276 276 275 275 283 283 280 275 274 274 275 275 275
280 280 278 277 277 277 277 276 276 276 276 275 275 283 283 280 275 275 275 275 275 275
279 280 277 278 277 278 277 277 276 275 275 275 275 283 283 281 276 274 274 274 275 276
276 277 277 276 275 275 275 275 274 274 274 274 275 280 283 282 276 274 273 273 273 274
Wind_Speed
16 11 11 13 11 11 12 12 13 13 12 10 10 8 7 5 5 5 5 6 4 3
14 14 12 10 10 9 9 9 13 15 13 13 12 11 10 7 7 6 5 6 6 4
14 14 11 10 13 13 10 12 14 15 15 14 13 12 12 7 6 8 5 5 6 5
13 14 13 13 14 14 13 14 15 16 15 15 15 13 12 11 11 11 9 6 7 7
12 12 14 14 14 14 15 15 16 15 16 16 16 16 16 15 13 13 12 10 8 7
14 15 17 17 15 15 15 15 14 15 17 17 17 17 16 15 13 12 10 10 10 9
15 17 18 16 15 15 16 16 16 16 17 17 16 16 15 13 12 10 9 9 9 9
18 15 14 14 15 15 16 15 16 15 14 15 15 13 17 15 13 12 10 8 8 7
10 11 13 12 13 14 14 14 14 15 16 16 11 24 27 19 13 13 12 11 10 9
11 13 14 13 14 15 15 14 16 15 14 15 13 28 28 25 12 13 12 12 11 9
8 10 10 12 14 14 13 16 15 16 16 15 14 30 30 27 13 11 12 12 12 10
6 6 8 11 11 10 12 12 13 14 17 17 15 31 30 24 13 12 12 10 9 9
5 6 8 8 9 8 8 10 10 10 11 14 15 31 32 25 12 13 10 10 9 14
1 6 5 5 3 7 9 9 9 11 10 13 15 21 31 30 12 11 10 9 8 7
Wind_Direction
195 192 191 184 181 183 191 189 174 181 178 171 169 168 170 175 173 170 175 176 161 157
193 193 195 184 177 184 177 177 169 177 179 176 172 172 168 178 177 167 169 178 175 163
197 194 182 174 187 181 177 167 170 176 181 177 175 172 172 171 166 171 176 173 170 170
198 191 182 190 191 185 170 173 175 178 178 180 176 174 175 178 174 180 175 171 178 182
200 191 191 201 195 183 184 180 178 177 178 182 181 176 181 180 183 181 182 177 173 181
201 192 197 202 194 183 178 183 182 179 182 182 184 179 185 183 178 180 178 172 179 179
204 207 206 196 192 186 185 181 185 186 184 182 180 181 176 174 171 172 173 173 175 176
217 213 203 192 189 184 189 185 185 182 182 177 177 177 173 171 170 170 167 170 176 181
212 201 200 186 184 184 182 178 179 187 182 175 180 182 178 165 164 169 171 177 182 184
212 205 189 179 180 186 183 173 183 181 177 179 175 180 178 171 165 171 178 177 174 180
205 204 183 179 182 179 179 185 184 180 176 173 177 180 177 171 162 169 174 178 179 177
190 179 183 187 184 185 178 181 185 182 174 172 173 178 176 168 163 170 173 173 176 179
180 178 187 192 180 176 188 181 165 170 182 178 171 182 177 169 164 167 164 165 180 186
198 153 157 142 155 162 165 155 166 168 174 171 177 182 182 172 167 168 165 164 174 180